Showing default

LIZZIESAT-3 (LS-3), 63233

Orbit data source: Space-Track

LIZZIESAT-3 (LS-3), 63233 is a payload satellite owned by Sidus Space (US) in SSO that was launched on Sat, 15 Mar 2025 UTC via an FALCON 9 launch vehicle from the Air Force Western Test Range (AFWTR). Payload-class satellites include a variety of spacecraft equipped with specific instruments for various scientific and technological missions. These include communications satellites like Starlink; space stations such as the ISS; scientific satellites like the Hubble; Earth observation satellites from companies like Planet Labs, Umbra, and HawkEye 360; GPS; miniature CubeSats for education and research; and military/defense satellites.

Loading next visibility...
Identifier
63233, 2025-052Z
Orbit
SSO
Country
Flag of USUS
Related business
Manufacturer
Sidus Space
Mission
Operational Commercial Technology
Bus & Motor
LIZZIESAT, Unknown motor
Mass
~100 kg wet, ~100 kg dry
Launch date (UTC)
2025-03-15 (1 year ago)
Launch vehicle
FALCON 9
Launch site
Air Force Western Test Range (AFWTR)
Object type
Payload
Rocket body
Debris
Shape & HBR
Oct Cyl + 8 Pan, 0.5 m
Radar Cross Section
1.008 m², Medium (>0.1 m² and < 1m²)

Expand to show TLE details & history
Last TLE update: 7 hours ago

TLE from 7 hours ago
0 LIZZIESAT-3 (LS-3)
1 63233U 25052Z   26121.13748510  .00006703  00000-0  30248-3 0  9998
2 63233  97.3974  13.8100 0005228 344.1315  15.9756 15.21312848 62656
Epoch: 2026-05-01T03:17Z
TLE epoch observation values (Epoch: 2026-05-01T03:17:58.712Z)
Latitude
-0.00006°
Longitude
105.24132°
Altitude
501.513 km
Speed
7.616 km/s
True Right ascension
00h 55m 14s
True Declination
0° 00' 00"
Sunlit
Object was in daylight at epoch
Visualization orbit readout
Latitude
Unknown
Longitude
Unknown
Altitude
Unknown
Speed
Unknown
Apparent Right ascension
Unknown
Apparent Declination
Unknown
Sunlit
N/A
Visualization observer readout
Local Sidereal Time
18:10:45
Azimuth
Unknown
Elevation
Unknown
Doppler factor
Unknown
Orbital elements
Apogee altitude
502.439 km
Perigee altitude
495.248 km
Semi-major axis
6,876.98 km
Eccentricity
0.00052
Inclination
97.3974°
RAAN
13.81°
Arg. of periapsis
344.1315°
True anomaly
15.9921°
Mean anomaly
15.9756°
Eccentric anomaly
15.98385°
Mean motion
3.8058 °/min
Orbital period
94.59 mins
BSTAR
0.00030248
Loading maneuver chart data...
Computing Atmospheric mass density...
Loading historical data...
Loading historical data...
Loading historical data...
Loading historical data...
Loading historical data...
Loading historical data...
Loading historical data...

Documentation

Showing up to 5 results
|